This is the latest recevied weather packets stored in our database for station/object E20ZNR-1. If no packets are shown the sender has not sent any weather packets the latest 10 day(s).
| Time | Temp. | Humidity | Pressure | Rain* | Wind** | Luminosity | Snow |
|---|---|---|---|---|---|---|---|
| 1777836251 | 27.78° C | 99% | 1005 hPa | - | - | 0 W/m² | - |
| 1777835326 | 27.78° C | 99% | 1005 hPa | - | - | 0 W/m² | - |
| 1777834402 | 27.78° C | 99% | 1005 hPa | - | - | 0 W/m² | - |
| 1777833476 | 27.78° C | 99% | 1005 hPa | - | - | 0 W/m² | - |
| 1777832551 | 27.78° C | 99% | 1005 hPa | - | - | 0 W/m² | - |
| 1777831626 | 27.78° C | 99% | 1005 hPa | - | - | 0 W/m² | - |
| 1777830701 | 28.33° C | 99% | 1006 hPa | - | - | 0 W/m² | - |
| 1777829776 | 28.33° C | 99% | 1006 hPa | - | - | 0 W/m² | - |
| 1777828850 | 28.33° C | 99% | 1005 hPa | - | - | 0 W/m² | - |
| 1777827925 | 28.33° C | 99% | 1005 hPa | - | - | 0 W/m² | - |
| 1777827000 | 28.89° C | 99% | 1005 hPa | - | - | 0 W/m² | - |
| 1777826074 | 28.89° C | 99% | 1005 hPa | - | - | 0 W/m² | - |
| 1777825149 | 28.89° C | 99% | 1005 hPa | - | - | 0 W/m² | - |
| 1777824224 | 28.89° C | 99% | 1005 hPa | - | - | 0 W/m² | - |
| 1777823300 | 28.89° C | 99% | 1005 hPa | - | - | 0 W/m² | - |
| 1777822375 | 28.89° C | 99% | 1005 hPa | - | - | 0 W/m² | - |
| 1777821450 | 29.44° C | 97% | 1005 hPa | - | - | 0 W/m² | - |
| 1777820525 | 29.44° C | 98% | 1005 hPa | - | - | 0 W/m² | - |
| 1777819600 | 29.44° C | 95% | 1005 hPa | - | - | 0 W/m² | - |
| 1777818675 | 30° C | 94% | 1004 hPa | - | - | 0 W/m² | - |
| 1777817750 | 30° C | 91% | 1004 hPa | - | - | 0 W/m² | - |
| 1777816826 | 30° C | 94% | 1004 hPa | - | - | 0 W/m² | - |
| 1777815901 | 30° C | 94% | 1004 hPa | - | - | 0 W/m² | - |
| 1777814976 | 29.44° C | 96% | 1004 hPa | - | - | 0 W/m² | - |
| 1777814050 | 28.89° C | 99% | 1004 hPa | - | - | 0 W/m² | - |
* Rain since midnight (hover to see other rain measurements)
** Current wind speed in m/s (hover to see current wind gust speed)